Simultaneous Nadir Overpasses (SNOs) Predictions

Prediction of SNOs between NOAA-19 and NPP Satellite Orbit:

Table of predicted SNOs for the next 14.0 days since TLE Epoch: 11/10/2024
Index Date (NOAA-19) Time (NOAA-19) Lat,Lon (NOAA-19) SZA (NOAA-19 ) Date (NPP) Time (NPP) Lat,Lon (NPP) SZA (NPP ) Distance(km) Time Diff (sec)
1 11/23/2024 10:06:39 71.62, 19.62 92.08 11/23/2024 10:07:47 71.70, 21.74 92.11 74.60 68
2 11/23/2024 10:57:25 -72.05,-172.26 87.51 11/23/2024 10:58:38 -72.08,-171.65 87.50 21.03 73
3 11/23/2024 11:48:24 72.23, -4.66 92.68 11/23/2024 11:49:27 72.23, -4.63 92.67 1.08 63
4 11/23/2024 12:39:18 -72.26, 162.67 87.29 11/23/2024 12:40:11 -72.24, 162.66 87.31 2.01 53
5 11/23/2024 13:30:20 72.29, -30.03 92.75 11/23/2024 13:30:58 72.29, -30.13 92.75 3.26 38
6 11/23/2024 14:21:15 -72.27, 137.20 87.27 11/23/2024 14:21:41 -72.25, 137.26 87.29 2.53 26
7 11/23/2024 15:12:17 72.30, -55.50 92.77 11/23/2024 15:12:28 72.30, -55.52 92.77 1.02 11
8 11/23/2024 16:03:11 -72.32, 111.83 87.20 11/23/2024 16:03:12 -72.32, 111.77 87.21 2.25 1
9 11/23/2024 16:54:14 72.30, -80.98 92.79 11/23/2024 16:53:58 72.31, -80.92 92.80 2.39 16
10 11/23/2024 17:45:08 -72.33, 86.36 87.18 11/23/2024 17:44:42 -72.33, 86.37 87.18 0.53 26
11 11/23/2024 18:36:10 72.36,-106.35 92.86 11/23/2024 18:35:29 72.38,-106.42 92.88 3.09 41
12 11/23/2024 19:27:05 -72.34, 60.88 87.16 11/23/2024 19:26:12 -72.34, 60.97 87.16 3.13 53
13 11/23/2024 20:18:07 72.36,-131.82 92.88 11/23/2024 20:16:59 72.39,-131.81 92.91 2.60 68
14 11/23/2024 21:08:59 -72.49, 35.72 87.00 11/23/2024 21:07:45 -72.50, 35.27 86.97 15.02 74
15 11/23/2024 21:59:49 73.12,-155.67 93.62 11/23/2024 21:58:43 73.11,-158.69 93.68 97.50 66



Historial Predications of SNOs between NOAA-19 and NPP
